Hourly Weather Roundup
Issued by NWS Central Illinois

Home | Current Version | Previous Version | Text Only | Print | Product List | Glossary On
Versions: 1 2 3 4 5 6 7 8 9 10 11 12 13 14 15 16 17 18 19 20 21 22 23 24 25 26 27 28 29 30 31 32 33 34 35 36 37 38 39 40 41 42 43 44 45 46 47 48 49 50
000
NZUS43 KILX 220310
HWRILX

AREA WEATHER ROUNDUP
NATIONAL WEATHER SERVICE, LINCOLN IL
900 PM CST FRI NOV 21 2014


CITY           SKY/WX    TMP DP  RH WIND       PRES   REMARKS
BLOOMINGTON    CLOUDY    34  17  50 S18       30.25F WCI  23
CHAMPAIGN      CLOUDY    35  18  49 SE14      30.28F WCI  26
DECATUR        CLOUDY    36  18  48 S14       30.27F WCI  27
FLORA          CLEAR     38  24  57 SE7       30.32F WCI  32
GALESBURG      CLOUDY    35  19  52 SE10      30.17F WCI  27
JACKSONVILLE   RAIN      38  26  59 S13       30.21F WCI  31
LACON          CLOUDY    35  14  42 S10G16    30.21F WCI  27
LAWRENCEVILLE  CLOUDY    38  21  50 SE8       30.34F WCI  32
LITCHFIELD     CLOUDY    37  20  50 SE14G20   30.24F WCI  29
$$


CITY           SKY/WX    TMP DP  RH WIND       PRES   REMARKS
LINCOLN        CLOUDY    37  19  49 S15G21    30.25F WCI  28
MACOMB         CLOUDY    36  22  57 SE14      30.20F WCI  27
MATTOON        CLOUDY    36  17  46 S13       30.28F WCI  27
MT CARMEL AP   CLOUDY    41  18  38 SE9       30.34F
OLNEY-NOBLE AP CLOUDY    37  21  52 SE7       30.33F WCI  32
PARIS          CLOUDY    33  21  60 SE10      30.32F WCI  25
PEORIA         CLOUDY    37  17  44 S15G21    30.22F WCI  28
PONTIAC        CLOUDY    35  16  46 S15G21    30.25F WCI  25
RANTOUL        CLOUDY    35  16  46 S12       30.29F WCI  26
ROBINSON       CLOUDY    36  19  50 SE7       30.35F WCI  31
SPRINGFIELD    CLOUDY    38  20  48 S20G26    30.23F WCI  28
TAYLORVILLE    CLOUDY    36  23  60 SE14      30.25F WCI  27
$$

...REGIONAL REPORTS...


CITY           SKY/WX    TMP DP  RH WIND       PRES   REMARKS
CHICAGO O`HARE CLOUDY    30  10  43 S12       30.24F WCI  20
KANKAKEE       CLOUDY    32  14  47 S12       30.29R WCI  23
MOLINE         CLOUDY    36  15  42 S7        30.16F WCI  30
MOUNT VERNON   CLOUDY    39  25  56 SE7       30.31F WCI  34
PITTSFIELD     CLOUDY    36  30  77 SE12      30.20S WCI  28
QUINCY         LGT RAIN  34  29  82 S9        30.17F WCI  27
ROCKFORD       CLOUDY    32  11  41 S14       30.21F WCI  22
$$


CITY           SKY/WX    TMP DP  RH WIND       PRES   REMARKS
BURLINGTON     CLOUDY    36  23  59 S14       30.16F WCI  27
CEDAR RAPIDS   CLOUDY    34  21  59 S16       30.10F WCI  24
DES MOINES     CLOUDY    37  27  67 S10       30.07F WCI  30
KIRKSVILLE     CLOUDY    38  29  70 S15       30.13F WCI  29
OTTUMWA        CLOUDY    35  23  61 S10       30.10F WCI  27
ST LOUIS       NOT AVBL
$$


CITY           SKY/WX    TMP DP  RH WIND       PRES   REMARKS
TERRE HAUTE    CLOUDY    33  15  47 SE7       30.34F WCI  27
EVANSVILLE     CLOUDY    41  20  43 SE5       30.35F
INDIANAPOLIS   PTCLDY    27  12  53 SE9       30.34F WCI  18
LAFAYETTE      CLOUDY    29  13  51 SE8       30.32F WCI  21
MADISON        CLOUDY    31  10  41 S15G26    30.14F WCI  20
MILWAUKEE      CLOUDY    29   6  38 S12       30.19F WCI  19
$$




USA.gov is the U.S. government's official web portal to all federal, state and local government web resources and services.